Location: Wildlife_Club
(35.6000°N, 81.4330°W)
Time: 20:24:44
(UTC-04:00)

A-11 Canister half - Pass Details

Date: 20 August 2020
Orbit: 1514 x 1686 km, 47.2° (Epoch: 26 September)

Event Time Altitude Azimuth Distance (km) Brightness Sun altitude
Rises 23:11:58 0° 303° (WNW) 4,829 12.6 -32.5°
Reaches altitude 10° 23:15:06 10° 300° (WNW) 3,863 11.8 -32.9°
Maximum altitude 23:24:46 60° 223° (SW) 1,866 9.2 -34.1°
Enters shadow 23:25:36 58° 204° (SSW) 1,892 9.2 -34.2°
